EHI
0 0 0 0 0 0 0 0 0 0 0 0 0 0 0 0 0 0 0 0 0 0 0 0 0 0 0 0 0 0 0 0 0 0 0 0 0 0 0 0 0 0 0 0
0 0 0 0 0 0 0 0 0 0 0 0 0 0 0 0 0 0 0 0 0 0 0 0 0 0 0 0 0 0 0 0 0 0 0 0 0 0 0 0 0 0 0 0
0 0 0 0 0 0 0 0 0 0 0 0 0 0 0 0 0 0 0 0 0 0 0 0 0 0 0 0 0 0 0 0 0 0 0 0 0 0 0 0 0 0 0 0
0 0 0 0 0 0 0 0 0 0 0 0 0 0 0 0 0 0 0 0 0 0 0 0 0 0 0 0 0 0 0 0 0 0 0 0 0 0 0 0 0 0 0 0
0 0 0 0 0 0 0 0 0 0 0 0 0 0 0 0 0 0 0 0 0 0 0 0 0 0 0 0 0 0 0 0 0 0 0 0 0 0 0 0 0 0 0 0
0 0 0 0 0 0 0 0 0 0 0 0 0 0 0 0 0 0 0 0 0 0 0 0 0 0 0 0 0 0 0 0 0 0 0 0 0 0 0 0 0 0 0 0
0 0 0 0 0 0 0 0 0 0 0 0 0 0 0 0 0 0 0 0 0 0 0 0 0 0 0 0 0 0 0 0 0 0 0 0 0 0 0 0 0 0 0 0
0 0 0 0 0 0 0 0 0 0 0 0 0 0 0 0 0 0 0 0 0 0 0 0 0 0 0 0 0 0 0 0 0 0 0 0 0 0 0 0 0 0 0 0
0 0 0 0 0 0 0 0 0 0 0 0 0 0 0 0 0 0 0 0 0 0 0 0 0 0 0 0 0 0 0 0 0 0 0 0 0 0 0 0 0 0 0 0
0 0 0 0 0 0 0 0 0 0 0 0 0 0 0 0 0 0 0 0 0 0 0 0 0 0 0 0 0 0 0 0 0 0 0 0 0 0 0 0 0 0 0 0
0 0 0 0 0 0 0 0 0 0 0 0 0 0 0 0 0 0 0 0 0 0 0 0 0 0 0 0 0 0 0 0 0 0 0 0 0 0 0 0 0 0 0 0
0 0 0 0 0 0 0 0 0 0 0 0 0 0 0 0 0 0 0 0 0 0 0 0 0 0 0 0 0 0 0 0 0 0 0 0 0 0 0 0 0 0 0 0
0 0 0 0 0 0 0 0 0 0 0 0 0 0 0 0 0 0 0 0 0 0 0 0 0 0 0 0 0 0 0 0 0 0 0 0 0 0 0 0 0 0 0 0
0 0 0 0 0 0 0 0 0 0 0 0 0 0 0 0 0 0 0 0 0 0 0 0 0 0 0 0 0 0 0 0 0 0 0 0 0 0 0 0 0 0 0 0
0 0 0 0 0 0 0 0 0 0 0 0 0 0 0 0 0 0 0 0 0 0 0 0 0 0 0 0 0 0 0 0 0 0 0 0 0 0 0 0 0 0 0 0
0 0 0 0 0 0 0 0 0 0 0 0 0 0 0 0 0 0 0 0 0 0 0 0 0 0 0 0 0 0 0 0 0 0 0 0 0 0 0 0 0 0 0 0
0 0 0 0 0 0 0 0 0 0 0 0 0 0 0 0 0 0 0 0 0 0 0 0 0 0 0 0 0 0 0 0 0 0 0 0 0 0 0 0 0 0 0 0
0 0 0 0 0 0 0 0 0 0 0 0 0 0 0 0 0 0 0 0 0 0 0 0 0 0 0 0 0 0 0 0 0 0 0 0 0 0 0 0 0 0 0 0
0 0 0 0 0 0 0 0 0 0 0 0 0 0 0 0 0 0 0 0 0 0 0 0 0 0 0 0 0 0 0 0 0 0 0 0 0 0 0 0 0 0 0 0
0 0 0 0 0 0 0 0 0 0 0 0 0 0 0 0 0 0 0 0 0 0 0 0 0 0 0 0 0 0 0 0 0 0 0 0 0 0 0 0 0 0 0 0
0 0 0 0 0 0 0 0 0 0 0 0 0 0 0 0 0 0 0 0 0 0 0 0 0 0 0 0 0 0 0 0 0 0 0 0 0 0 0 0 0 0 0 0
0 0 0 0 0 0 0 0 0 0 0 0 0 0 0 0 0 0 0 0 0 0 0 0 0 0 0 0 0 0 0 0 0 0 0 0 0 0 0 0 0 0 0 0
0 0 0 0 0 0 0 0 0 0 0 0 0 0 0 0 0 0 0 0 0 0 0 0 0 0 0 0 0 0 0 0 0 0 0 0 0 0 0 0 0 0 0 0
0 0 0 0 0 0 0 0 0 0 0 0 0 0 0 0 0 0 0 0 0 0 0 0 0 0 0 0 0 0 0 0 0 0 0 0 0 0 0 0 0 0 0 0
0 0 0 0 0 0 0 0 0 0 0 0 0 0 0 0 0 0 0 0 0 0 0 0 0 0 0 0 0 0 0 0 0 0 0 0 0 0 0 0 0 0 0 0
0 0 0 0 0 0 0 0 0 0 0 0 0 0 0 0 0 0 0 0 0 0 0 0 0 0 0 0 0 0 0 0 0 0 0 0 0 0 0 0 0 0 0 0
0 0 0 0 0 0 0 0 0 0 0 0 0 0 0 0 0 0 0 0 0 0 0 0 0 0 0 0 0 0 0 0 0 0 0 0 0 0 0 0 0 0 0 0
Wind_Speed
4 3 3 4 5 8 6 7 8 7 8 9 7 8 8 7 7 8 8 8 8 7 6 5 5 4 4 4 4 4 5 4 3 2 2 3 4 3 3 3 3 2 3 3
1 1 3 2 4 7 6 5 5 4 7 5 4 5 6 8 9 9 9 9 8 8 8 7 6 6 5 4 4 5 5 4 3 3 3 3 3 3 4 3 3 3 3 3
2 2 1 4 6 8 6 5 8 9 9 4 5 8 10 10 10 10 10 9 9 9 8 7 7 7 7 5 5 5 4 3 3 3 3 2 3 3 3 2 3 3 3 3
1 2 4 8 3 6 6 5 6 5 4 7 7 6 5 7 10 10 9 9 9 8 7 6 6 6 6 6 5 5 4 3 3 3 3 2 3 2 2 2 2 2 2 2
3 2 5 7 3 6 6 5 6 7 5 5 6 5 1 4 7 9 10 8 8 7 7 7 7 7 7 6 5 5 4 3 3 3 3 3 2 1 1 1 1 1 1 1
4 3 5 7 2 3 5 4 5 8 9 9 8 5 5 6 7 7 7 7 8 7 7 8 7 7 8 6 6 5 4 4 3 3 4 3 2 1 1 1 0 0 1 1
4 4 8 7 2 4 4 8 5 8 10 12 9 7 5 7 7 8 8 8 9 9 7 7 7 8 8 6 5 5 4 4 3 3 3 3 2 1 1 1 1 1 1 2
5 4 9 3 4 7 7 2 4 7 8 9 6 5 7 8 8 9 9 8 9 9 7 5 7 8 7 6 4 4 4 4 3 2 2 3 3 1 1 1 1 1 2 3
8 8 4 2 5 4 2 2 3 6 7 9 8 6 7 7 8 8 9 8 7 8 7 5 5 7 8 5 5 5 5 3 2 2 2 2 3 2 1 1 1 1 1 2
3 5 4 4 4 3 2 3 3 5 8 10 8 8 7 7 7 7 7 8 7 8 8 6 5 5 5 5 5 6 5 3 2 2 2 1 1 2 2 1 1 1 1 2
3 5 4 4 2 1 1 3 5 5 6 8 10 8 7 7 7 7 7 6 7 8 8 7 5 4 4 5 6 5 4 3 2 2 2 1 1 2 2 3 3 3 3 3
6 5 4 4 2 0 2 3 5 7 6 5 8 9 7 7 6 7 7 7 7 6 7 6 6 5 4 5 6 6 4 3 2 2 1 1 1 1 3 3 4 5 5 4
4 2 2 1 1 1 3 3 4 6 7 7 5 7 8 6 5 6 6 7 8 7 7 6 6 5 4 4 5 5 5 4 2 2 2 1 1 1 2 4 4 4 5 6
2 2 1 1 1 1 3 4 5 5 5 6 6 6 7 6 6 6 7 6 6 6 6 6 5 4 4 5 5 5 4 4 4 3 2 2 2 2 2 2 3 4 5 8
1 2 3 2 3 3 4 6 7 5 5 5 5 6 7 7 7 6 5 5 6 6 5 5 5 4 4 5 5 5 4 3 3 2 2 2 2 1 2 2 3 4 4 6
1 2 4 4 4 3 4 6 6 5 4 5 5 5 5 6 5 4 4 6 7 6 5 5 5 4 4 5 5 4 3 5 4 2 2 2 2 2 2 3 3 4 4 5
4 3 3 4 3 3 3 4 5 5 5 5 5 5 6 6 5 4 4 4 5 5 5 5 4 4 4 5 5 4 3 3 4 2 2 3 2 3 3 4 4 5 6 6
3 4 5 6 6 4 3 3 4 4 4 4 5 6 6 6 6 5 4 4 4 3 2 3 3 3 4 4 4 3 3 3 3 3 3 3 3 3 4 4 5 6 6 6
3 4 4 4 4 5 4 4 3 3 3 4 5 5 5 4 4 4 4 5 5 3 3 3 4 4 3 4 4 3 3 3 2 2 3 4 4 3 4 4 5 6 6 5
3 4 4 4 4 5 4 4 4 3 3 4 4 4 4 3 4 4 5 4 4 4 3 3 3 3 3 3 4 2 3 3 3 3 3 3 3 4 4 5 5 6 6 6
3 4 4 4 4 3 4 4 4 4 3 4 4 4 4 3 3 4 4 2 2 2 2 3 2 2 2 3 4 3 3 3 3 3 4 4 4 5 5 5 5 6 6 6
2 3 3 4 4 3 2 3 4 4 3 3 3 3 4 3 2 2 2 3 3 2 2 2 2 3 3 3 2 3 3 3 3 3 4 4 4 5 5 6 6 6 6 6
2 3 3 4 4 3 2 2 3 3 3 3 3 3 3 3 3 3 1 2 2 2 2 2 4 5 4 2 2 3 3 4 4 4 4 4 5 5 5 6 6 6 6 6
2 2 3 3 4 4 3 1 2 2 2 2 2 3 3 2 1 1 2 2 2 1 1 3 4 5 3 1 2 3 3 4 4 4 5 5 5 5 5 6 6 6 6 7
2 2 3 4 4 3 3 2 2 2 2 1 1 1 1 2 2 2 1 1 2 1 1 2 4 3 1 2 2 3 3 4 5 4 4 5 5 5 6 6 6 6 6 6
1 1 2 2 2 2 2 2 2 1 2 1 0 0 0 0 1 1 1 1 1 1 1 1 2 2 2 2 3 4 4 4 5 5 5 5 6 6 6 6 8 7 6 7
1 1 1 1 1 2 2 2 2 2 2 2 1 1 1 0 0 1 1 1 1 1 2 2 2 2 3 3 4 4 4 4 4 5 5 5 5 6 6 8 6 6 6 6
Wind_Direction
225 221 179 196 190 180 186 185 186 217 217 231 208 196 185 169 157 150 153 156 159 159 156 150 142 138 135 134 130 127 116 107 106 99 87 78 69 62 60 63 65 62 56 39
283 240 203 230 223 194 201 195 207 221 248 239 179 155 161 165 163 164 166 167 164 160 157 158 155 149 141 137 134 125 120 118 108 99 87 81 77 70 64 56 50 57 53 43
255 300 74 268 229 198 196 198 183 207 225 170 158 177 182 178 175 175 173 169 167 167 166 163 160 154 151 147 132 124 123 117 111 109 100 91 86 75 67 57 55 53 42 41
139 98 229 245 241 184 187 218 206 208 197 177 182 178 172 174 176 177 173 169 169 165 160 154 148 144 139 133 133 132 127 125 125 119 111 100 91 82 65 61 61 50 30 23
130 178 276 287 235 173 173 243 214 196 190 151 130 94 44 196 182 178 173 167 165 161 152 146 147 146 136 135 136 135 142 149 152 143 131 119 110 104 90 76 49 27 13 14
134 159 233 252 249 164 119 270 227 183 178 157 135 145 226 191 169 159 150 147 145 141 134 142 150 144 138 144 145 158 169 167 159 152 146 147 156 149 124 121 119 23 4 343
160 200 255 255 247 126 161 237 201 175 173 164 175 187 168 147 153 150 143 143 142 141 145 153 151 144 142 148 167 175 159 147 142 148 152 152 142 129 118 97 64 20 349 330
154 186 249 252 149 180 215 233 165 168 169 166 157 129 129 137 141 140 137 139 143 143 144 145 150 147 147 165 176 150 139 137 138 140 146 135 133 124 111 109 86 350 339 328
187 209 246 241 223 248 218 199 189 169 161 150 143 146 140 138 141 143 143 143 143 141 138 143 155 153 154 171 155 142 134 138 143 136 134 139 144 145 130 128 142 275 297 303
249 271 276 275 279 280 225 203 180 155 148 148 145 144 140 140 142 142 143 147 144 139 141 151 157 156 159 158 150 139 140 148 147 140 137 135 147 160 162 185 211 245 265 278
260 280 308 308 293 300 74 107 113 118 132 144 138 143 146 146 148 150 147 148 149 151 154 159 156 152 151 149 144 141 146 153 154 155 160 164 186 205 202 217 210 216 232 239
224 231 205 259 298 109 116 118 130 125 117 125 140 145 142 145 149 148 146 146 147 149 150 154 153 153 154 152 149 146 148 160 167 169 175 179 210 300 280 254 268 262 255 254
230 228 187 230 353 85 118 121 125 130 136 134 133 138 139 137 140 138 140 148 158 161 159 155 153 158 164 157 152 152 159 170 171 173 179 187 192 211 293 313 307 295 290 292
207 134 133 177 166 101 106 102 96 93 103 120 126 126 127 123 126 138 154 163 155 145 146 149 152 167 174 161 156 159 163 171 170 179 186 191 202 214 222 255 298 304 302 300
251 197 181 143 108 101 106 108 103 99 100 101 114 125 131 135 145 156 154 139 129 129 139 146 155 179 172 160 160 166 168 176 179 183 188 195 208 223 237 249 260 276 292 298
311 81 107 114 119 116 115 120 123 127 124 119 122 131 136 135 131 126 129 138 140 153 163 162 176 188 169 161 162 169 182 190 181 180 189 203 218 230 247 255 262 267 271 276
131 133 131 134 138 134 137 143 144 144 135 133 141 134 123 117 113 122 141 155 157 162 165 171 186 180 168 168 169 175 178 192 196 191 206 218 226 236 244 249 256 262 264 266
178 170 161 157 153 142 126 117 124 130 138 140 132 127 129 136 149 161 161 144 129 125 165 187 177 163 167 173 173 173 177 189 195 206 221 231 240 241 245 251 259 264 272 277
92 101 106 116 127 131 130 127 126 126 126 129 132 139 147 153 155 149 139 136 145 171 219 209 176 159 171 185 172 167 177 191 207 223 229 248 256 253 253 257 261 265 269 273
96 98 100 100 103 113 121 121 117 115 121 130 129 129 136 151 149 144 141 156 190 202 202 186 169 174 187 195 181 173 187 200 213 228 234 239 249 257 259 260 262 266 268 268
120 118 118 119 116 116 127 132 130 132 134 136 143 152 158 157 147 144 141 169 240 208 176 172 168 189 195 195 190 187 200 210 219 228 236 244 252 259 262 264 267 268 270 270
141 133 131 129 124 119 123 129 131 133 130 126 131 135 134 138 142 144 170 196 211 193 168 177 187 204 209 199 187 199 212 220 227 232 238 245 251 257 263 267 268 270 270 269
148 141 137 138 141 137 108 107 120 129 135 141 145 150 156 168 166 156 199 237 206 205 187 202 220 229 230 197 195 212 224 230 234 237 241 245 249 254 260 265 267 268 270 271
126 129 133 128 119 117 117 123 117 119 127 135 148 155 149 140 149 218 200 211 224 225 208 232 243 248 245 200 213 226 234 239 242 244 246 249 252 255 258 262 267 269 268 269
132 123 125 128 133 148 155 140 107 101 101 96 98 133 150 161 174 204 194 196 224 252 254 268 274 273 246 218 227 238 244 246 249 251 249 255 258 259 261 262 264 268 269 269
153 159 174 175 171 162 155 144 140 148 138 127 21 297 110 126 149 158 167 213 234 250 248 260 273 275 242 240 242 246 249 262 270 264 258 262 264 264 265 265 266 266 267 268
130 142 136 118 142 161 158 156 161 177 175 167 188 240 232 203 164 183 198 219 250 259 257 258 259 257 255 255 256 258 258 257 258 259 259 259 260 262 264 265 266 268 268 267